Weather in Löningen

Germany     52°44′13″N   7°45′24″E
temp.,
°C
wind,
m/s
gust,
m/s
humid.,
%
clouds,
%
prec.,
mm/h
press.,
hPa
HPBL,
m
20 april, tue
tue2023:00+9ne228530 0.0 102029
02:00+7ne22901 0.0 101917
05:00+5nne22790 0.0 101926
08:00+6ne23720 0.0 1019110
11:00+12ne22550 0.0 1018518
14:00+15nne33450 0.0 10171099
17:00+16nne34440 0.0 10161409
20:00+11nne47730 0.0 1016139
21 april, wed
wed2123:00+6nne35770 0.0 101787
02:00+5ne22790 0.0 101722
05:00+4n11790 0.0 101710
08:00+6nw2472100 0.0 1017111
11:00+11nnw5671100 0.0 1017907
14:00+10nnw676380 0.1 10181234
17:00+10nnw79515 0.0 10181472
20:00+5nnw7106882 0.0 1019892
22 april, thu
thu2223:00+2wnw3975100 0.0 1020265
02:00+2w4107994 0.0 1020279
05:00+1w512805 0.0 1020330
08:00+5wnw6127183 0.1 10191292
11:00+8nw9126093 0.4 10201941
14:00+9nw9124863 0.4 10202139
17:00+9nw911516 0.0 10211827
20:00+6nw711715 0.0 10221013
23 april, fri
fri2323:00+3nw411845 0.0 1023343
02:00+1wnw48935 0.0 1024173
05:00+1wnw35955 0.0 102598
08:00+4nw37865 0.0 1026234
11:00+9nnw465924 0.0 10261363
14:00+12nnw56505 0.0 10261626
17:00+11nnw56525 0.0 10261372
20:00+7nnw477337 0.0 1026238
24 april, sat
sat2423:00+3nw359220 0.0 102771
02:00+2wnw359595 0.0 102789
05:00+2wnw3595100 0.0 102694
08:00+5wnw3687100 0.0 1026211
11:00+9nnw4665100 0.0 10261204
14:00+10nnw4662100 0.0 10261302
17:00+10nnw765599 0.0 10261194
20:00+7nnw357574 0.0 1027143